Regional Weather Roundup
Issued by NWS Little Rock, AR

Home | Current Version | Previous Version | Text Only | Print | Product List | Glossary On
Versions: 1 2 3 4 5 6 7 8 9 10 11 12 13 14 15 16 17 18 19 20 21 22 23 24 25 26 27 28 29 30 31 32 33 34 35 36 37 38 39 40 41 42 43 44 45 46 47 48 49 50
000
ASUS44 KLZK 220005
RWRLZK

WEATHER ROUNDUP FOR ARKANSAS
NATIONAL WEATHER SERVICE LITTLE ROCK AR
600 PM CST SAT JAN 21 2017

NOTE: "FAIR" INDICATES FEW OR NO CLOUDS BELOW 12,000 FEET WITH NO
SIGNIFICANT WEATHER AND/OR OBSTRUCTIONS TO VISIBILITY.

ARZ001-003-010-029-220100-
NORTHWEST ARKANSAS

CITY           SKY/WX    TMP DP  RH WIND       PRES   REMARKS
FAYETTEVILLE   CLOUDY    53  52  96 CALM      29.47S FOG
6HR MIN TEMP:  53; 6HR MAX TEMP:  65; 6HR PCP:  0.02;

FORT SMITH     CLOUDY    59  51  75 E10       29.42F
6HR MIN TEMP:  59; 6HR MAX TEMP:  68; 6HR PCP: TRACE;

HARRISON       CLOUDY    60  43  53 S5        29.49S
6HR MIN TEMP:  60; 6HR MAX TEMP:  68;

BENTONVILLE    CLOUDY   N/A N/A N/A S7        29.49S
                                      6HR PCP:  0.01;

ROGERS         RAIN      55  50  83 S12G17    29.50S
6HR MIN TEMP:  55; 6HR MAX TEMP:  65; 6HR PCP:  0.01;

SILOAM SPGS    CLOUDY    55  48  76 SE8       29.45S
6HR MIN TEMP:  55; 6HR MAX TEMP:  64; 6HR PCP:  0.01;

HIGHFILL       TSTM      57  49  74 S16       29.49R
6HR MIN TEMP:  56; 6HR MAX TEMP:  65; 6HR PCP:  0.02;

SPRINGDALE     TSTM      57  50  77 S12G26    29.51R
$$

ARZ004-005-016-220100-
NORTH CENTRAL ARKANSAS

CITY           SKY/WX    TMP DP  RH WIND       PRES   REMARKS
BATESVILLE     PTCLDY    63  55  77 NE3       29.52S
6HR MIN TEMP:  63; 6HR MAX TEMP:  72;

FLIPPIN        CLOUDY    64  43  45 E5        29.47S
6HR MIN TEMP:  64; 6HR MAX TEMP:  70;

MTN HOME       CLOUDY    62  47  57 SE7       29.49S
6HR MIN TEMP:  62; 6HR MAX TEMP:  69;

$$

ARZ040-041-220100-
WEST CENTRAL ARKANSAS

CITY           SKY/WX    TMP DP  RH WIND       PRES   REMARKS
MENA           CLOUDY    61  61 100 CALM      29.43F
MOUNT IDA      PTCLDY    60  58  92 E3        29.42F
6HR MIN TEMP:  60; 6HR MAX TEMP:  70; 6HR PCP:  0.01;

$$

ARZ009-017-025-026-028-220100-
NORTHEAST ARKANSAS

CITY           SKY/WX    TMP DP  RH WIND       PRES   REMARKS
CORNING        MOCLDY    61  59  94 SE6       29.54S
JONESBORO      CLOUDY    62  56  80 SE5       29.53S
6HR MIN TEMP:  62; 6HR MAX TEMP:  69;

NEWPORT        CLOUDY    61  57  87 SE8       29.52S
6HR MIN TEMP:  61; 6HR MAX TEMP:  69;

WALNUT RIDGE   CLOUDY    61  55  82 SE7       29.53S
6HR MIN TEMP:  61; 6HR MAX TEMP:  68;

BLYTHEVILLE    MOCLDY    63  56  78 S3        29.56R
6HR MIN TEMP:  62; 6HR MAX TEMP:  71;

$$

ARZ022-023-033-042-044-220100-
CENTRAL ARKANSAS

CITY           SKY/WX    TMP DP  RH WIND       PRES   REMARKS
LITTLE ROCK    CLOUDY    61  58  90 SE6       29.50R
6HR MIN TEMP:  61; 6HR MAX TEMP:  69;

N LITTLE ROCK    N/A     63  58  85 SE6       29.52R
6HR MIN TEMP:  63; 6HR MAX TEMP:  68;

JACKSONVILLE   CLOUDY    63  60  87 SE6       29.50R
6HR MIN TEMP:  63; 6HR MAX TEMP:  70;

SEARCY         CLOUDY    63  59  87 CALM      29.52R
6HR MIN TEMP:  63; 6HR MAX TEMP:  70;

HOT SPRINGS    TSTM      63  60  90 E12       29.46F
6HR MIN TEMP:  60; 6HR MAX TEMP:  67; 6HR PCP:  0.01;

RUSSELLVILLE   CLOUDY    61  57  87 CALM      29.47S
6HR MIN TEMP:  61; 6HR MAX TEMP:  68; 6HR PCP: TRACE;

CLINTON        MOCLDY    59  55  88 CALM      29.49S
$$

ARZ036-220100-
EAST ARKANSAS

CITY           SKY/WX    TMP DP  RH WIND       PRES   REMARKS
WEST MEMPHIS   CLOUDY    59  55  87 CALM      29.52F
6HR MIN TEMP:  58; 6HR MAX TEMP:  69;

$$

ARZ050-053-066-070-073-220100-
SOUTHWEST ARKANSAS

CITY           SKY/WX    TMP DP  RH WIND       PRES   REMARKS
ARKADELPHIA    FAIR      62  60  93 NE3       29.44F
6HR MIN TEMP:  62; 6HR MAX TEMP:  70;

CAMDEN         RAIN      64  57  77 E8        29.43F
TEXARKANA      LGT RAIN  62  62 100 SE8       29.39F
6HR MIN TEMP:  62; 6HR MAX TEMP:  68; 6HR PCP:  0.02;

EL DORADO      CLOUDY    65  60  84 E5        29.42F
6HR MIN TEMP:  65; 6HR MAX TEMP:  71;

DE QUEEN       MOCLDY    61  60  97 E5        29.41R
6HR MIN TEMP:  61; 6HR MAX TEMP:  65; 6HR PCP: TRACE;

$$

ARZ056-057-069-220100-
SOUTHEAST ARKANSAS

CITY           SKY/WX    TMP DP  RH WIND       PRES   REMARKS
PINE BLUFF     CLOUDY    63  58  83 E7        29.49F
6HR MIN TEMP:  63; 6HR MAX TEMP:  71;

STUTTGART      CLOUDY    64  54  68 S8        29.53R
6HR MIN TEMP:  64; 6HR MAX TEMP:  70;

MONTICELLO     MOCLDY    66  58  75 E5        29.48F
6HR MIN TEMP:  66; 6HR MAX TEMP:  72;


$$





USA.gov is the U.S. government's official web portal to all federal, state and local government web resources and services.